DELTA 1 DEB, 12540

Orbit data source: Space-Track

DELTA 1 DEB, 12540 is space debris in SSO originally from a launch on Thu, 29 Jul 1976 UTC launched from the Air Force Western Test Range (AFWTR). Debris objects in space refer to the collection of defunct objects orbiting the Earth. Examples of debris include non-operational satellites, rocket bodies, and fragments generated from explosions, collisions, or faulty payload assembly.

Loading next visibility...
Identifier
12540, 1976-077DV
Orbit
SSO
Country
Flag of USUS
Related business
Manufacturer
Unknown
Mission
Spacecraft
Bus & Motor
Unknown
Mass
Unknown
Launch date (UTC)
1976-07-29 (50 years ago)
Launch vehicle
Unknown
Launch site
Air Force Western Test Range (AFWTR)
Object type
Payload
Rocket body
Debris
Shape & HBR
Unknown shape, 0.1 m
Radar Cross Section
Small (<0.1 m²)

Expand to show TLE details & history
Last TLE update: 13 hours ago

TLE from 13 hours ago
0 DELTA 1 DEB
1 12540U 76077DV  26062.78861607 -.00000250  00000-0 -13758-2 0  9993
2 12540 102.4305 181.0655 0048026 186.6347 329.6825 12.47144706 87602
Epoch: 2026-03-03T18:55Z
TLE epoch observation values (Epoch: 2026-03-03T18:55:36.428Z)
Latitude
23.38843°
Longitude
-78.9555°
Altitude
1,446.437 km
Speed
7.155 km/s
True Right ascension
00h 26m 02s
True Declination
23° 16' 28"
Sunlit
Object was in daylight at epoch
Visualization orbit readout
Latitude
Unknown
Longitude
Unknown
Altitude
Unknown
Speed
Unknown
Apparent Right ascension
Unknown
Apparent Declination
Unknown
Sunlit
N/A
Visualization observer readout
Local Sidereal Time
11:35:10
Azimuth
Unknown
Elevation
Unknown
Doppler factor
Unknown
Orbital elements
Apogee altitude
1,511.763 km
Perigee altitude
1,436.341 km
Semi-major axis
7,852.189 km
Eccentricity
0.0048
Inclination
102.4305°
RAAN
181.0655°
Arg. of periapsis
186.6347°
True anomaly
329.40325°
Mean anomaly
329.6825°
Eccentric anomaly
329.54302°
Mean motion
3.1193 °/min
Orbital period
115.41 mins
BSTAR
-0.0013758
Loading maneuver chart data...
Computing Atmospheric mass density...
Loading historical data...
Loading historical data...
Loading historical data...
Loading historical data...
Loading historical data...
Loading historical data...
Loading historical data...

Documentation

Showing up to 5 results
|